Home > Time Zones > World Clock > Weather > U.S.A. > Knox > Past weeks

Flag for U.S.A. Weather past 2 weeks in Knox, Indiana, U.S.A.

Now
30 °F

Overcast.


Feels Like: 24 °F
Forecast: 23 / 32 °F
Wind: 6 mph from Northwest

Location: Porter County Municipal Airport

Current Time: Dec 28, 2014 at 6:24:02 AM

Latest Report: Dec 28, 2014 at 5:56 AM


Visibility: 10 mi

Pressure: 30.17 "Hg

Humidity: 79%

Dew point: 24 °F

Location of KnoxLocation

Historic Weather in Knox — Graph

°F

Knox temperature yesterday

Maximum temperature yesterday: 48 °F (at 12:56 PM)
Minimum temperature yesterday: 33 °F (at 7:56 PM)
Average temperature yesterday: 41 °F

Past Weeks' High & Low Weather Summary

 TemperatureHumidityPressure
High51 °F (Dec 26, 12:56 PM)100% (Dec 14, 10:56 PM)30.35 "Hg (Dec 14, 10:56 PM)
Low22 °F (Dec 18, 4:56 PM)63% (Dec 26, 12:56 PM)29.49 "Hg (Dec 24, 1:56 PM)
Average37 °F85%30.04 "Hg
* Reported Dec 13 4:56 AM — Dec 28 4:56 AM, Knox, Weather by CustomWeather, © 2014

Note: Actual official high and low records may vary slightly from our data, if they occured in-between our weather recording intervals... More about our weather records

Advertising

Knox weather history for previous 24 hours

 ConditionsComfort  
Time TempWeatherWind HumidityBarometerVisibility
4:56 AM
Dec 28
30 °FOvercast.7 mph79%30.16 "Hg10 mi
3:56 AM30 °FOvercast.8 mph79%30.14 "Hg10 mi
2:56 AM30 °FOvercast.10 mph82%30.13 "Hg10 mi
1:56 AM32 °FOvercast.9 mph75%30.13 "Hg10 mi
12:56 AM32 °FOvercast.8 mph79%30.11 "Hg10 mi
11:56 PM
Dec 27
33 °FOvercast.8 mph72%30.10 "Hg10 mi
10:56 PM33 °FOvercast.6 mph75%30.11 "Hg10 mi
9:56 PM33 °FOvercast.9 mph78%30.12 "Hg10 mi
8:56 PM33 °FOvercast.10 mph78%30.11 "Hg10 mi
7:56 PM33 °FOvercast.9 mph78%30.11 "Hg10 mi
6:56 PM34 °FOvercast.15 mph79%30.10 "Hg10 mi
5:56 PM35 °FOvercast.15 mph82%30.08 "Hg10 mi
4:56 PM36 °FMostly cloudy.17 mph85%30.07 "Hg10 mi
3:56 PM37 °FMostly cloudy.12 mph86%30.06 "Hg10 mi
2:56 PM38 °FCloudy.15 mph86%30.05 "Hg10 mi
1:56 PM40 °FOvercast.21 mph89%30.01 "Hg9 mi
12:56 PM48 °FLow clouds.17 mph93%29.98 "Hg10 mi
11:56 AM47 °FFog.18 mph100%30.01 "Hg3 mi
10:56 AM46 °FFog.14 mph96%30.02 "Hg3 mi
9:56 AM46 °FFog.17 mph96%30.03 "Hg5 mi
9:03 AM45 °FFog.13 mph100%30.02 "Hg1 mi
8:56 AM45 °FFog.16 mph100%30.02 "Hg1 mi
7:56 AM45 °FFog.14 mph97%30.04 "Hg2 mi
6:56 AM45 °FFog.13 mph93%30.04 "Hg6 mi
Weather by CustomWeather, © 2014

See weather overviewHow to use our weather pages